ポンス-ヴィネッケ彗星

7P/Pons-Winnecke (1996)

English version
Home page
Updated on April 4, 2008

---------------------------------------------------------------------

・ プロフィール

・ 軌道要素

   The following improved orbital elements, by Kenji Muraoka, are from 
  39 observations 1970 to 1996, including 9 Planets, Moon and 5 minor
  planets perturbations and non-gravitational effect of style II.  
   The mean residual is  +/- 0.83 arc seconds.

      Epoch  =  1995 Dec. 29.0  TT       JDT = 2450080.5
          T  =  1996 Jan.  2.45617       +/- 0.00034 (m.e.) TT
       Peri. =  172.31511                +/- 0.00028
       Node  =   93.42662                +/- 0.00017   (2000.0)
       Incl. =   22.30118                +/- 0.00005
          q  =    1.2558894              +/- 0.0000014 AU
          e  =    0.6344259              +/- 0.0000004
          a  =    3.4353893              +/- 0.0000016 AU
          n  =    0.15478901             +/- 0.00000011
          P  =    6.367                  +/- 0.0000045  years
         A1  =   -0.014                  +/- 0.022
         A2  =   +0.00286                +/- 0.00029

・ 星図

・ 1995年 1月 3日〜1996年 2月 7日
・ 1995年12月 9日〜1996年12月23日

・ 光度変化

        H = 15.8  G = 0.15                        [    ,-400]  (              〜1994年11月28日)
        m1 = 11.7 + 5 logΔ + 12.5 log r(t - 50)  [-400,  50]  (1994年11月28日〜1996年 2月21日)
        m1 = 11.5 + 5 logΔ + 15.0 log r(t - 50)  [  50, 380]  (1996年 2月21日〜1997年 1月16日)
        H = 15.8  G = 0.15                        [ 380,    ]  (1997年 1月16日〜              )

---------------------------------------------------------------------

軌道要素は村岡健治氏の計算によるものです。
星図は StellaNavigator Ver.2.0 for Windows (アストロアーツ 編著 / アスキー出版局刊) で作成したものです。
光度グラフはComet for Windowsで作成したものです。

---------------------------------------------------------------------

Copyright(C) Seiichi Yoshida (comet@aerith.net). All rights reserved.